Regional Weather Roundup
Issued by NWS Huntsville, AL

Home | Current Version | Previous Version | Text Only | Print | Product List | Glossary On
Versions: 1 2 3 4 5 6 7 8 9 10 11 12 13 14 15 16 17 18 19 20 21 22 23 24 25 26 27 28 29 30 31 32 33 34 35 36 37 38 39 40 41 42 43 44 45 46 47 48 49 50
000
ASUS44 KHUN 242210
RWRHUN

WEATHER ROUNDUP FOR THE TENNESSEE VALLEY
NATIONAL WEATHER SERVICE HUNTSVILLE AL
400 PM CST TUE JAN 24 2017

ALZ001>004-242300-
NORTHWEST ALABAMA

CITY           SKY/WX    TMP DP  RH WIND       PRES   REMARKS
COURTLAND HCN    N/A     57 N/A N/A CALM        N/A
RUSSELLVILLE     N/A     61 N/A N/A MISG        N/A
SHOALS AIRPORT SUNNY     59  34  39 SE3       29.88S
SHOALS TVA RES   N/A     57 N/A N/A MISG        N/A
$$

ALZ005>007-016-242300-
NORTH CENTRAL ALABAMA

CITY           SKY/WX    TMP DP  RH WIND       PRES   REMARKS
CULLMAN AG STN   N/A     59 N/A N/A W3          N/A
DECATUR AP     SUNNY     58  34  40 CALM      29.88F
HUNTSVILLE AP  SUNNY     57  35  43 CALM      29.88S
MERIDIANVILLE  SUNNY     55  34  44 CALM      29.88S
REDSTONE ARSN  SUNNY     56  33  41 CALM      29.88R
VINEMONT AP    FAIR      60  32  35 CALM      29.90R
$$

ALZ008>010-242300-
NORTHEAST ALABAMA

CITY           SKY/WX    TMP DP  RH WIND       PRES   REMARKS
ALBERTVILLE    SUNNY     57  41  54 CALM      29.87R
FORT PAYNE     SUNNY     55  32  41 CALM      29.88R
SCOTTSBORO AP  SUNNY     55  37  50 S7        29.89R
SCOTTSBORO HCN   N/A     57 N/A N/A MISG        N/A
VALLEY HEAD      N/A     57 N/A N/A MISG        N/A
$$

TNZ076-096-097-242300-
SOUTHEASTERN MIDDLE TENNESSEE

CITY           SKY/WX    TMP DP  RH WIND       PRES   REMARKS
TULLAHOMA      SUNNY     54  32  43 W3        29.88S
WINCHESTER     SUNNY     52  36  54 CALM      29.87S
$$

...SURROUNDING SITES...

CITY           SKY/WX    TMP DP  RH WIND       PRES   REMARKS
ATLANTA        SUNNY     61  32  33 NW9       29.85R
ANNISTON       SUNNY     62  35  36 SW7       29.88R
BIRMINGHAM     SUNNY     62  34  35 SW6       29.91R
CHATTANOOGA    SUNNY     56  36  47 NE5       29.87S
CORINTH        FAIR      61  34  36 S9        29.83F
DALTON         SUNNY     54  37  54 NW3       29.88R
GADSDEN        SUNNY     61  34  36 N3        29.88S
GOLDEN TRNGL   SUNNY     61  39  44 S5        29.84F
HALEYVILLE     FAIR      60  35  39 SW6       29.90R
JACKSON TN     SUNNY     60  32  34 SE6G17    29.81F
MEMPHIS        MOSUNNY   63  36  36 S10       29.79F
NASHVILLE      SUNNY     55  32  41 S5        29.87S
OXFORD MS      FAIR      63  34  34 S10       29.84S
ROME           SUNNY     62  38  40 N5        29.86R
SAVANNAH       SUNNY     59  32  36 S8        29.84F
TUPELO         SUNNY     60  35  39 SE8       29.85F
TUSCALOOSA     SUNNY     62  37  39 CALM      29.89S
$$

...GULF COAST WEATHER...

CITY           SKY/WX    TMP DP  RH WIND       PRES   REMARKS
GULFPORT       SUNNY     62  45  53 S6        29.92S
PASCAGOULA     SUNNY     62  45  53 S7        29.92S
MOBILE         MOSUNNY   69  41  36 S3        29.91S
GULF SHORES    CLEAR     59  49  67 SW6       29.92S
PENSACOLA      SUNNY     61  48  62 SW12      29.91R
DESTIN         SUNNY     65  50  58 W8        29.90R
PANAMA CITY    SUNNY     63  50  63 W9        29.90R
APPALACHICOLA  SUNNY     66  49  54 W10       29.88S
$$




USA.gov is the U.S. government's official web portal to all federal, state and local government web resources and services.